Wind_Speed
22 23 24 26 29 30 30 34 35 36 35 34 33 33 33 33 34 35 38 40 49 73 83 82 83 85 92 100 104 104 103 101 101 104 100 101 104 108 105 106 110 106 99 100 100 102 99
24 26 28 31 33 33 36 39 41 42 39 37 37 37 38 39 40 42 43 46 48 52 68 85 86 86 91 99 102 105 105 108 110 109 108 105 104 108 107 105 110 106 106 105 105 100 99
30 31 33 35 37 39 42 44 45 45 42 39 39 40 41 40 41 45 48 51 52 56 59 65 80 91 94 97 99 105 108 109 109 108 115 112 111 112 109 108 105 106 109 108 103 101 101
34 36 39 42 45 45 47 49 49 46 42 42 42 43 43 43 44 46 50 55 57 59 63 68 71 76 90 98 101 103 107 115 117 112 112 115 114 112 109 108 107 107 107 108 101 100 98
38 41 44 46 48 48 50 50 47 46 46 47 46 45 46 47 47 48 50 56 60 63 67 69 75 80 85 91 100 107 110 111 118 120 123 125 121 117 115 113 110 109 104 105 104 103 103
42 45 47 46 45 47 48 48 50 50 48 47 46 47 47 48 48 49 51 55 59 62 67 74 79 83 90 96 99 105 112 114 117 119 122 127 129 128 122 120 109 105 103 106 104 104 106
42 42 44 42 42 45 48 46 41 40 39 38 38 37 38 38 38 40 42 46 52 59 63 70 80 89 96 99 105 110 112 115 120 120 124 126 128 125 123 128 118 115 109 107 108 103 102
39 42 40 39 39 37 35 36 34 33 32 32 29 30 29 32 35 37 41 45 51 57 66 70 79 88 97 106 112 116 117 117 121 124 126 127 122 123 127 130 130 127 120 110 107 104 100
45 35 38 37 35 36 30 26 26 27 27 27 29 31 31 33 36 38 45 51 56 59 66 73 75 81 93 98 106 114 119 117 121 122 125 127 125 125 125 127 129 127 124 123 112 110 104
39 36 40 40 43 38 29 23 25 25 26 25 26 27 29 31 36 40 46 49 54 57 64 68 72 75 73 73 82 95 109 118 121 122 126 128 125 124 127 127 125 123 125 125 124 123 113
39 38 39 40 43 26 27 28 26 28 28 25 25 26 31 36 35 45 48 50 53 57 64 64 69 70 64 61 64 69 83 101 110 116 122 122 127 127 127 122 124 120 123 121 121 117 112
38 38 39 40 39 33 31 28 25 27 25 26 28 29 35 36 41 50 53 54 56 59 62 63 67 56 53 45 51 58 66 76 89 101 109 111 116 127 125 125 122 117 116 116 116 112 104
40 38 38 40 36 32 33 29 29 28 27 29 29 35 37 42 46 55 53 54 57 61 61 58 61 52 49 45 43 48 57 62 67 79 93 100 108 112 116 121 121 118 112 107 104 103 93
40 36 37 40 36 33 31 33 32 32 32 34 37 38 42 45 48 52 52 55 60 60 58 61 58 50 45 46 39 41 49 52 57 61 70 85 103 102 104 109 115 116 113 109 100 92 88
39 35 34 37 39 39 37 34 32 35 38 39 42 45 44 45 48 49 52 56 59 59 54 54 59 53 44 41 37 36 40 45 48 53 61 71 81 93 98 102 106 111 109 108 105 94 84
39 38 37 35 36 40 41 39 36 38 40 42 45 47 48 51 51 52 54 59 58 55 54 53 50 49 44 41 35 29 32 35 40 44 53 60 66 78 89 94 99 102 106 104 101 95 85
41 40 40 38 39 39 42 43 47 45 46 47 46 50 53 57 57 55 56 61 61 54 52 52 53 44 39 35 35 28 26 30 33 37 45 51 58 65 76 87 93 97 97 94 96 91 85
43 43 40 40 40 40 39 43 48 51 50 48 46 51 52 57 58 58 55 56 59 58 53 52 54 44 36 31 26 26 23 25 27 32 38 46 51 58 63 73 81 84 88 83 81 85 81
41 42 44 43 43 43 44 43 44 49 51 52 49 51 54 55 58 59 58 59 58 55 54 55 54 46 37 30 22 23 18 19 22 25 32 41 47 51 55 63 70 73 78 76 74 73 73
42 41 43 44 44 44 46 45 43 47 50 50 54 55 56 57 57 55 55 61 63 61 54 56 53 45 36 28 21 17 15 14 17 22 27 34 43 48 50 54 58 65 66 71 68 63 65
44 43 44 46 45 43 45 44 43 46 51 51 52 55 55 59 61 59 57 57 61 61 59 59 56 46 34 25 20 15 13 12 14 18 23 30 40 41 41 47 51 55 57 57 57 62 60
46 46 45 46 47 47 46 44 46 47 52 56 55 56 56 61 59 61 58 58 63 61 56 62 59 46 32 23 20 16 13 8 9 14 19 25 32 36 36 41 48 52 54 52 56 58 62
52 52 51 48 47 46 46 46 46 50 50 54 58 57 57 62 58 59 57 55 58 61 56 58 55 42 31 22 20 15 12 5 4 10 16 20 26 31 31 35 47 51 56 56 59 62 62
59 57 55 53 51 50 49 48 48 49 52 53 58 56 57 60 59 56 57 54 57 57 54 56 52 39 28 22 18 14 9 5 2 6 10 15 20 24 26 33 45 58 59 58 54 57 63
65 59 55 53 52 52 52 52 54 54 55 54 56 53 56 57 58 55 55 55 57 54 50 54 50 37 25 21 16 13 9 8 4 1 4 9 14 21 27 35 47 59 65 63 59 59 64
62 58 59 55 51 50 53 54 55 55 55 54 53 53 56 52 52 50 51 53 55 56 52 54 52 36 23 20 15 15 15 11 7 7 9 13 18 23 29 34 45 55 65 66 64 65 69
64 61 61 55 51 49 50 52 53 55 54 54 52 53 54 50 49 45 46 50 52 51 46 49 46 32 21 18 14 17 13 13 12 13 14 15 20 23 27 34 43 54 64 67 63 66 67
64 64 59 51 47 47 48 50 51 52 53 53 50 50 48 44 45 42 41 45 47 47 42 44 45 31 21 15 14 16 11 11 14 18 20 21 22 23 24 31 46 55 60 63 65 67 59
67 56 51 47 45 44 46 49 49 49 51 50 47 48 46 41 40 40 37 40 44 45 39 42 41 34 21 13 15 11 9 12 14 21 21 24 26 27 30 34 45 59 69 67 65 58 61
Wind_Direction
316 320 320 317 318 317 316 318 317 314 305 295 288 281 278 268 259 256 251 247 240 237 239 240 238 237 235 235 237 236 238 240 240 241 241 243 243 245 245 245 245 245 245 246 249 251 253
308 310 309 309 309 309 309 310 308 309 304 295 287 280 276 271 260 254 251 249 247 244 241 240 239 239 240 238 236 239 237 239 240 242 242 244 245 247 245 245 246 246 245 246 250 253 255
310 306 305 306 306 306 307 305 304 303 297 290 286 283 279 272 264 260 255 250 248 246 245 243 242 241 241 240 240 240 238 236 238 241 243 243 245 246 246 247 246 247 246 246 247 248 250
309 306 307 306 307 306 304 302 300 299 294 290 286 281 276 270 266 263 257 253 250 248 246 244 243 242 243 242 240 241 240 239 239 239 241 243 243 243 246 245 246 246 247 246 247 248 246
308 307 305 305 304 304 302 300 297 297 294 291 288 283 277 272 271 269 265 259 256 252 249 248 246 244 243 243 242 241 241 240 239 241 241 244 244 245 246 247 246 247 247 247 248 248 247
306 306 305 304 304 303 301 298 296 294 292 289 285 283 279 277 275 274 272 271 266 261 256 252 250 247 245 243 241 241 241 242 240 240 241 242 243 244 243 248 249 247 249 248 247 250 250
311 309 310 311 308 302 301 299 297 296 293 289 286 285 284 281 279 278 277 275 275 267 261 259 256 252 248 247 246 244 242 240 242 241 241 241 241 243 245 242 242 243 244 244 246 249 251
320 321 318 320 317 310 302 299 300 299 293 290 288 286 287 287 287 286 284 282 280 278 277 269 262 256 252 248 246 245 243 241 241 241 241 242 242 241 242 243 243 241 243 244 246 247 250
326 329 331 329 332 330 312 309 309 304 299 291 288 289 292 294 293 293 294 293 290 287 282 277 274 269 262 258 254 250 250 247 246 244 245 244 242 242 243 243 243 245 245 241 242 244 247
334 332 330 336 337 331 322 319 323 323 319 312 303 301 300 299 303 310 306 303 297 294 290 288 284 279 276 267 257 251 251 250 249 245 245 244 244 244 242 242 243 244 245 245 244 244 245
334 337 335 340 342 334 327 326 328 329 323 319 314 312 314 313 314 320 317 310 308 302 299 297 292 290 283 273 264 253 246 247 246 246 246 244 242 243 242 243 243 242 243 244 245 246 245
338 336 335 342 344 339 335 334 337 335 330 326 321 319 322 316 312 315 319 316 316 311 308 305 301 300 292 278 270 259 250 246 242 242 244 242 241 241 242 241 241 243 243 243 245 246 248
342 341 341 342 345 346 350 341 340 340 334 329 323 318 318 317 316 318 319 322 320 315 313 312 312 307 299 291 278 263 253 249 245 240 239 241 242 241 240 240 240 239 243 245 245 246 248
349 346 348 348 349 347 346 346 342 338 337 333 330 327 325 322 322 323 323 326 325 322 321 320 319 313 306 298 287 269 256 250 248 245 239 236 237 240 239 237 238 237 238 241 243 244 246
348 347 348 349 350 351 351 351 346 342 339 336 330 327 328 328 327 327 329 331 329 327 325 326 323 320 313 300 290 274 261 255 247 242 238 235 233 235 236 235 235 236 235 236 238 240 241
343 346 340 340 344 342 342 343 346 344 340 336 334 331 331 329 332 333 332 335 333 332 329 328 326 321 318 308 299 283 264 254 246 241 238 236 233 232 232 233 232 233 234 233 234 237 238
336 337 340 337 337 337 336 334 334 335 336 333 331 329 331 332 333 335 336 337 336 335 332 332 329 324 319 312 302 293 272 257 248 239 235 234 232 231 230 231 232 231 232 234 232 233 234
334 332 332 336 338 338 336 332 330 332 336 335 335 335 336 338 336 335 337 338 338 338 335 336 332 328 325 315 303 297 284 262 252 240 233 232 231 229 228 229 229 230 231 232 230 231 230
329 330 327 327 329 331 333 333 330 330 332 334 333 335 335 339 339 337 338 339 340 341 337 339 337 332 331 320 310 299 290 268 256 243 234 230 229 227 225 226 227 227 226 227 228 227 227
328 329 324 323 322 323 324 327 330 328 327 329 330 333 335 340 341 341 342 342 342 341 341 341 342 340 335 326 318 302 291 270 250 239 228 228 229 228 220 216 218 222 224 224 225 223 223
328 326 326 325 323 321 319 322 326 329 328 329 330 330 335 337 339 342 345 344 344 346 342 344 346 346 340 337 326 313 307 291 258 239 227 220 225 227 223 212 209 215 217 218 218 219 217
337 334 327 326 324 325 323 320 320 325 326 326 330 330 332 334 337 339 345 348 348 345 346 345 347 349 345 346 337 335 325 309 268 240 226 219 221 224 215 209 202 203 209 211 216 212 208
334 331 330 324 321 320 321 319 320 322 325 325 327 328 330 330 336 337 342 348 350 346 347 346 348 350 347 350 348 346 336 330 267 227 219 216 215 213 212 200 197 193 199 203 206 205 198
331 326 323 320 318 317 316 316 317 319 321 325 324 326 330 329 330 334 339 347 349 350 347 347 352 353 352 356 354 357 351 359 323 231 216 212 210 204 199 193 190 190 187 194 198 196 189
329 323 319 314 313 311 311 312 311 314 316 321 321 324 330 329 327 332 340 346 348 350 349 351 356 359 359 1 2 19 33 43 41 144 183 187 183 182 189 190 188 185 180 186 190 187 185
327 323 319 313 309 304 303 304 308 310 315 317 321 325 328 329 328 332 339 347 349 352 352 354 357 360 359 10 17 47 47 54 79 119 134 156 167 173 180 184 184 182 178 178 185 181 181
326 324 320 309 305 300 300 302 303 307 312 315 321 327 327 331 329 333 339 346 349 353 352 354 360 2 1 20 50 58 61 79 101 116 137 148 153 165 174 177 177 174 178 176 180 176 181
329 326 322 315 306 300 298 300 302 307 309 314 321 323 327 330 329 331 337 346 349 353 353 353 4 1 4 27 57 65 83 105 123 124 135 135 140 152 158 172 168 171 173 172 178 176 180
330 328 328 323 317 310 302 302 302 301 308 314 319 322 325 325 329 330 334 343 347 353 354 354 2 6 8 37 63 68 88 110 130 131 135 134 144 146 150 157 166 171 172 174 174 174 179
Height
10685 10681 10677 10674 10670 10665 10661 10658 10654 10652 10648 10645 10643 10641 10639 10638 10637 10636 10635 10635 10634 10639 10644 10650 10654 10658 10661 10661 10663 10675 10679 10685 10686 10690 10697 10698 10703 10707 10721 10732 10730 10749 10763 10763 10762 10758 10763
10680 10676 10672 10668 10663 10659 10655 10651 10646 10642 10638 10635 10632 10630 10628 10627 10626 10626 10625 10624 10625 10626 10628 10631 10633 10639 10640 10637 10646 10649 10658 10660 10663 10668 10676 10679 10685 10686 10697 10709 10712 10731 10736 10743 10745 10749 10749
10675 10670 10665 10660 10656 10651 10646 10641 10636 10631 10627 10623 10620 10618 10616 10615 10614 10613 10612 10610 10612 10613 10614 10614 10616 10621 10618 10621 10624 10627 10636 10636 10642 10646 10652 10657 10656 10666 10681 10687 10699 10707 10713 10720 10733 10737 10737
10668 10662 10657 10652 10647 10641 10636 10630 10625 10620 10615 10611 10608 10605 10602 10601 10600 10599 10598 10596 10596 10597 10597 10597 10598 10597 10597 10597 10603 10606 10609 10613 10618 10627 10630 10628 10632 10645 10656 10665 10676 10684 10688 10702 10720 10720 10726
10661 10654 10648 10642 10636 10630 10623 10618 10613 10608 10603 10598 10595 10591 10588 10587 10587 10586 10584 10581 10581 10581 10579 10580 10578 10579 10576 10575 10573 10577 10576 10582 10591 10597 10604 10595 10609 10619 10629 10642 10653 10663 10679 10688 10691 10699 10696
10653 10645 10638 10632 10625 10618 10612 10606 10601 10595 10590 10586 10582 10579 10576 10575 10574 10572 10570 10566 10564 10563 10560 10557 10555 10554 10551 10547 10546 10544 10553 10560 10565 10571 10574 10574 10584 10594 10609 10620 10641 10650 10657 10664 10672 10676 10676
10643 10636 10628 10621 10615 10606 10599 10592 10587 10582 10577 10573 10569 10568 10565 10563 10561 10560 10558 10554 10546 10542 10543 10537 10530 10526 10521 10522 10520 10515 10523 10532 10531 10543 10544 10548 10556 10584 10589 10592 10605 10613 10628 10638 10647 10655 10665
10634 10627 10620 10612 10604 10597 10589 10583 10578 10573 10568 10564 10561 10558 10557 10555 10552 10549 10545 10542 10536 10530 10518 10513 10504 10501 10495 10489 10485 10480 10487 10499 10500 10506 10512 10517 10543 10555 10559 10563 10576 10588 10603 10619 10628 10638 10652
10627 10620 10613 10605 10596 10588 10579 10575 10570 10565 10560 10556 10553 10550 10548 10545 10543 10540 10534 10527 10518 10511 10500 10489 10484 10472 10460 10466 10464 10464 10461 10472 10474 10486 10488 10495 10515 10524 10531 10539 10553 10565 10579 10600 10613 10620 10637
10620 10613 10606 10598 10588 10579 10572 10568 10564 10560 10555 10550 10546 10543 10539 10537 10533 10528 10520 10511 10501 10490 10479 10468 10452 10439 10436 10432 10426 10427 10427 10431 10440 10450 10451 10461 10483 10495 10503 10515 10528 10543 10556 10571 10591 10606 10624
10615 10608 10600 10593 10584 10574 10568 10563 10559 10555 10549 10544 10540 10537 10533 10527 10521 10514 10505 10495 10483 10469 10456 10445 10427 10414 10405 10398 10392 10393 10392 10390 10398 10406 10411 10437 10452 10459 10472 10493 10499 10524 10535 10548 10565 10584 10599
10609 10602 10595 10588 10581 10572 10564 10559 10555 10550 10545 10540 10536 10531 10525 10518 10511 10500 10490 10478 10465 10451 10437 10420 10400 10390 10379 10375 10367 10365 10365 10364 10369 10376 10382 10405 10416 10419 10446 10462 10479 10499 10513 10529 10545 10562 10585
10605 10598 10591 10584 10577 10570 10562 10556 10550 10545 10541 10535 10529 10524 10517 10509 10501 10488 10476 10463 10449 10434 10418 10405 10386 10370 10360 10354 10349 10344 10342 10343 10347 10352 10362 10379 10384 10398 10417 10437 10458 10480 10497 10513 10530 10549 10586
10603 10596 10588 10580 10573 10567 10561 10554 10547 10541 10535 10529 10521 10514 10508 10499 10489 10476 10462 10449 10433 10418 10401 10381 10369 10355 10346 10334 10333 10327 10324 10327 10328 10336 10344 10353 10358 10374 10393 10417 10433 10453 10479 10496 10514 10540 10564
10601 10594 10587 10579 10570 10562 10556 10550 10543 10535 10528 10521 10512 10504 10497 10488 10478 10465 10451 10438 10420 10405 10390 10375 10353 10340 10332 10323 10318 10313 10310 10311 10313 10317 10322 10327 10342 10354 10370 10393 10409 10431 10455 10475 10494 10520 10545
10597 10590 10583 10576 10568 10559 10551 10544 10539 10533 10524 10515 10505 10494 10485 10475 10465 10453 10437 10424 10410 10395 10378 10364 10352 10334 10321 10312 10306 10302 10298 10298 10300 10304 10307 10315 10326 10337 10353 10369 10389 10410 10432 10453 10482 10508 10535
10594 10586 10578 10571 10565 10557 10548 10539 10531 10525 10518 10509 10499 10487 10475 10462 10451 10441 10427 10409 10394 10385 10370 10355 10339 10327 10315 10305 10296 10292 10289 10288 10289 10293 10297 10303 10312 10322 10335 10356 10372 10394 10418 10442 10469 10494 10522
10589 10581 10574 10566 10559 10553 10545 10536 10524 10514 10507 10500 10492 10481 10469 10456 10441 10429 10419 10407 10389 10371 10358 10346 10330 10317 10307 10298 10291 10285 10282 10280 10281 10284 10288 10293 10300 10309 10325 10340 10361 10385 10408 10430 10455 10482 10508
10584 10577 10569 10562 10554 10546 10539 10532 10521 10510 10502 10492 10483 10476 10464 10453 10438 10421 10407 10395 10382 10368 10351 10336 10322 10309 10299 10290 10285 10278 10276 10275 10274 10277 10281 10286 10290 10299 10313 10330 10350 10371 10394 10417 10441 10466 10495
10578 10571 10563 10555 10547 10539 10531 10523 10517 10505 10494 10486 10475 10466 10456 10445 10434 10420 10405 10386 10370 10353 10343 10328 10317 10303 10292 10284 10279 10273 10270 10269 10269 10270 10274 10279 10284 10289 10302 10318 10337 10361 10383 10407 10431 10459 10482
10572 10564 10557 10548 10540 10532 10524 10515 10508 10499 10487 10478 10470 10458 10449 10435 10422 10413 10400 10385 10368 10353 10333 10322 10308 10297 10286 10279 10274 10269 10266 10265 10266 10268 10271 10274 10278 10287 10300 10314 10330 10351 10375 10399 10424 10444 10471
10566 10558 10550 10541 10533 10525 10517 10508 10499 10492 10481 10467 10461 10450 10441 10428 10419 10406 10394 10379 10362 10347 10335 10318 10304 10293 10284 10277 10273 10269 10265 10262 10262 10265 10267 10271 10277 10284 10296 10311 10325 10344 10367 10392 10412 10432 10456
10560 10550 10542 10533 10525 10517 10509 10501 10492 10483 10476 10463 10451 10443 10433 10422 10413 10401 10390 10378 10365 10346 10332 10320 10305 10292 10283 10276 10272 10267 10264 10262 10261 10262 10265 10269 10274 10283 10294 10306 10319 10339 10356 10378 10394 10413 10442
10549 10540 10532 10523 10515 10507 10500 10492 10484 10476 10468 10459 10445 10437 10427 10415 10405 10398 10385 10375 10362 10347 10332 10319 10304 10291 10283 10277 10273 10268 10264 10263 10262 10263 10266 10270 10275 10284 10294 10302 10313 10325 10348 10370 10392 10410 10430
10538 10528 10519 10511 10503 10496 10489 10482 10474 10468 10460 10454 10441 10432 10423 10412 10398 10389 10380 10368 10356 10346 10334 10319 10303 10291 10284 10279 10273 10269 10266 10265 10265 10266 10269 10272 10277 10284 10291 10299 10310 10323 10339 10361 10382 10402 10424
10526 10515 10505 10497 10490 10483 10476 10470 10464 10457 10451 10443 10436 10425 10416 10409 10397 10387 10376 10366 10354 10340 10328 10317 10303 10293 10287 10281 10275 10270 10269 10268 10268 10269 10271 10274 10279 10285 10291 10299 10310 10325 10339 10355 10371 10390 10412
10512 10501 10490 10481 10475 10469 10464 10458 10452 10446 10441 10433 10429 10418 10408 10401 10390 10383 10375 10365 10354 10343 10332 10321 10308 10298 10291 10284 10279 10274 10273 10272 10273 10273 10274 10278 10283 10288 10293 10301 10312 10325 10341 10354 10374 10394 10407
10499 10487 10475 10466 10460 10455 10451 10446 10441 10436 10430 10425 10419 10411 10403 10395 10386 10379 10371 10363 10354 10344 10334 10324 10311 10301 10294 10289 10283 10280 10278 10277 10276 10278 10279 10282 10287 10292 10299 10308 10314 10330 10350 10363 10374 10393 10411
10487 10474 10463 10454 10448 10443 10439 10435 10431 10425 10420 10416 10410 10403 10396 10390 10384 10373 10367 10361 10353 10343 10334 10325 10316 10305 10299 10292 10287 10285 10284 10283 10283 10282 10285 10287 10291 10295 10303 10312 10324 10332 10338 10357 10378 10396 10407